Location: La Chapelle
(48.3135°N, 1.3085°W)
Time: 08:11:04
(UTC+00:00)

CZ-4B R/B - Pass Details

Date: 03 March 2021
Orbit: 388 x 455 km, 97.6° (Epoch: 11 April)

Event Time Altitude Azimuth Distance (km) Brightness Sun altitude
Rises 18:39:27 0° 9° (N) 2,294 4.9 -8.6°
Reaches altitude 10° 18:41:26 10° 4° (N) 1,435 3.9 -8.9°
Maximum altitude 18:44:25 53° 287° (WNW) 489 2.0 -9.4°
Drops below altitude 10° 18:47:25 10° 209° (SSW) 1,438 4.3 -9.9°
Sets 18:49:25 0° 204° (SSW) 2,299 5.3 -10.2°
